Home   Weather   Vila Nova de Gaia   Past weeks

Flag for Portugal Past Weather in Vila Nova de Gaia, Portugal — Yesterday and Last 2 Weeks

Now
48 °F

Clear.


Feels Like: 46 °F
Forecast: 36 / 52 °F
Wind: 5 mph from Northwest

Location: Lisbon Portela Airport

Current Time: Jan 22, 2017 at 2:13:58 am

Latest Report: Jan 22, 2017 at 1:30 am


Visibility: 10 mi

Pressure: 30.12 "Hg

Humidity: 76%

Dew Point: 41 °F

Location of Vila Nova de GaiaLocation

Past Weather in Vila Nova de Gaia — Graph

°F

Vila Nova de Gaia Temperature Yesterday

Maximum temperature yesterday: 57 °F (at 3:30 pm)
Minimum temperature yesterday: 37 °F (at 6:00 am)
Average temperature yesterday: 48 °F

High & Low Weather Summary for the Past Weeks

 TemperatureHumidityPressure
High64 °F (Jan 11, 12:30 pm)100% (Jan 7, 6:00 am)30.48 "Hg (Jan 7, 6:00 am)
Low34 °F (Jan 20, 2:00 am)29% (Jan 18, 1:30 pm)30.01 "Hg (Jan 20, 2:30 pm)
Average49 °F71%30.26 "Hg
* Reported Jan 7 12:00 am — Jan 22 12:30 am, Vila Nova de Gaia, Weather by CustomWeather, © 2017

Note: Actual official high and low records may vary slightly from our data, if they occured in-between our weather recording intervals... More about our weather records

Advertising

Vila Nova de Gaia Weather History for the Previous 24 Hours

Scroll right to see more
 ConditionsComfort  
Time TempWeatherWind HumidityBarometerVisibility
12:30 am
Sun, Jan 22
48 °FClear.6 mph82%30.15 "Hg10 mi
12:00 am50 °FClear.5 mph76%30.15 "Hg10 mi
11:30 pm
Sat, Jan 21
50 °FClear.7 mph76%30.15 "Hg10 mi
11:00 pm50 °FClear.7 mph76%30.15 "Hg10 mi
10:30 pm48 °FPassing clouds.7 mph82%30.15 "HgN/A
10:00 pm48 °FPassing clouds.6 mph82%30.15 "HgN/A
9:30 pm48 °FClear.6 mph76%30.15 "Hg10 mi
9:00 pm50 °FClear.6 mph71%30.15 "Hg10 mi
8:30 pm50 °FClear.6 mph71%30.15 "Hg10 mi
8:00 pm50 °FClear.5 mph71%30.15 "Hg10 mi
7:30 pm50 °FClear.7 mph71%30.12 "Hg10 mi
7:00 pm50 °FClear.8 mph71%30.12 "Hg10 mi
6:30 pm52 °FPassing clouds.8 mph67%30.12 "HgN/A
6:00 pm52 °FPassing clouds.8 mph62%30.12 "HgN/A
5:30 pm54 °FPassing clouds.7 mph54%30.09 "HgN/A
5:00 pm55 °FPassing clouds.8 mph51%30.09 "HgN/A
4:30 pm57 °FPassing clouds.8 mph51%30.09 "HgN/A
4:00 pm57 °FSunny.8 mph44%30.09 "Hg10 mi
3:30 pm57 °FSunny.2 mph51%30.09 "Hg10 mi
3:00 pm55 °FPassing clouds.5 mph51%30.09 "HgN/A
2:30 pm55 °FSunny.5 mph51%30.09 "Hg10 mi
2:00 pm54 °FPassing clouds.5 mph54%30.09 "HgN/A
1:30 pm54 °FSunny.7 mph58%30.09 "Hg10 mi
1:00 pm52 °FPassing clouds.6 mph62%30.12 "HgN/A
12:30 pm54 °FPassing clouds.6 mph54%30.12 "HgN/A
12:00 pm52 °FPassing clouds.6 mph58%30.12 "HgN/A
11:30 am50 °FPassing clouds.5 mph62%30.15 "HgN/A
11:00 am48 °FPassing clouds.6 mph66%30.15 "HgN/A
10:30 am46 °FPassing clouds.5 mph71%30.15 "HgN/A
10:00 am46 °FSunny.2 mph76%30.15 "Hg10 mi
9:30 am45 °FSunny.1 mph81%30.12 "Hg10 mi
9:00 am41 °FSunny.2 mph87%30.12 "Hg10 mi
8:30 am41 °FSunny.3 mph76%30.12 "Hg10 mi
8:00 am41 °FPassing clouds.3 mph81%30.09 "HgN/A
7:30 am37 °FClear.2 mph87%30.09 "Hg10 mi
7:00 am37 °FClear.3 mph93%30.09 "Hg10 mi
6:30 am37 °FClear.3 mph100%30.09 "Hg10 mi
6:00 am37 °FPassing clouds.5 mph93%30.07 "HgN/A
5:30 am46 °FClear.8 mph62%30.07 "Hg10 mi
5:00 am43 °FClear.2 mph76%30.07 "Hg10 mi
4:30 am39 °FClear.2 mph81%30.07 "Hg10 mi
4:00 am43 °FPassing clouds.3 mph71%30.07 "HgN/A
3:30 am45 °FClear.6 mph71%30.07 "Hg10 mi
3:00 am45 °FClear.2 mph71%30.07 "Hg10 mi
2:30 am46 °FPassing clouds.5 mph66%30.07 "HgN/A
2:00 am46 °FPassing clouds.6 mph66%30.07 "HgN/A
Weather by CustomWeather, © 2017

See weather overviewHow to use our weather pages